Wetbulb
39.08 39.53 40.01 40.23 40.11 39.53 38.89 38.82 39.08 38.51 37.48 36.35 35.99 35.77 35.65 35.51 35.44 35.54 35.56 35.33 35.35 35.31 35.15 34.79 34.51 33.68 32.58 31.71 31.33 31.16 31.03 30.70 30.65 31.89 32.61 31.25 29.84 29.31 29.12 28.97 28.83 28.82 28.93 29.05 28.70 28.65 28.71 28.48 29.16 30.65 31.94 32.27 31.46 30.52 29.87 29.93 29.07 28.89 28.96 29.07 29.36 29.11 28.43 27.82 27.70 27.57 27.50 27.44 28.06
38.32 38.78 39.84 41.09 40.56 39.71 38.85 38.59 38.55 38.02 37.26 36.42 36.01 35.48 35.19 35.36 35.25 34.95 34.63 34.39 35.09 35.02 34.66 34.61 33.49 32.03 30.91 31.00 31.18 30.91 30.44 30.25 30.11 30.43 30.52 29.84 29.25 28.97 28.84 28.86 28.74 28.93 29.20 29.25 28.69 28.91 29.07 28.43 29.02 30.47 31.78 32.06 30.91 30.11 29.71 29.74 29.14 28.82 28.62 28.17 28.78 29.01 29.00 28.78 28.50 28.17 28.00 28.37 28.31
37.48 37.56 37.75 37.94 37.57 37.68 37.71 37.23 36.31 35.32 34.78 35.13 35.25 35.15 35.10 35.26 35.20 34.99 34.57 34.06 33.46 33.35 33.49 33.49 32.49 31.59 30.74 30.05 29.79 29.71 29.79 29.97 29.85 29.51 29.21 29.17 28.97 28.77 28.72 28.70 28.55 29.08 29.60 29.33 28.51 28.56 28.60 27.82 29.28 31.07 32.29 31.92 30.06 29.48 29.60 29.70 29.76 29.45 29.01 28.49 29.23 29.74 30.30 31.25 29.97 29.38 29.42 30.11 28.89
36.22 36.15 36.07 35.92 35.65 35.58 35.77 36.30 34.95 34.17 34.09 34.55 33.80 33.98 34.52 34.92 34.86 34.46 33.65 32.47 32.10 32.30 32.38 31.55 31.01 30.86 30.75 30.29 29.60 29.20 29.61 31.19 31.20 30.13 29.03 28.89 28.79 28.72 28.59 28.48 28.59 28.58 28.36 28.01 27.86 27.74 27.55 27.18 29.20 30.63 30.90 29.29 28.43 28.73 29.62 30.29 29.36 29.17 29.34 29.31 29.79 30.04 30.47 31.57 30.73 30.91 31.29 31.02 29.36
35.08 35.14 35.32 35.36 34.77 34.62 34.62 34.35 34.03 33.75 33.81 34.09 34.28 34.35 34.30 34.09 33.79 33.21 32.94 33.43 33.23 32.86 32.04 30.67 29.98 30.06 30.41 30.48 29.45 28.96 29.21 30.41 32.32 30.80 28.69 28.57 28.52 28.33 28.21 28.24 28.34 28.37 28.24 27.99 27.71 27.60 27.33 26.91 29.10 30.00 29.89 28.83 29.67 29.89 29.44 28.27 27.74 27.98 28.81 30.14 30.30 30.55 30.84 31.30 31.33 31.29 31.18 31.08 30.00
34.58 34.10 34.09 34.25 33.94 33.91 33.84 33.47 32.93 32.89 33.06 33.45 33.48 33.34 33.44 34.12 33.75 33.37 33.04 32.76 32.07 31.68 31.79 32.57 31.98 31.84 31.39 29.85 29.00 28.64 28.64 28.60 28.69 28.31 27.95 28.21 28.12 28.06 28.05 28.21 28.10 27.90 27.80 27.69 27.47 27.25 26.98 26.69 29.18 30.10 30.21 30.35 30.05 29.47 28.60 27.40 27.53 27.92 28.73 30.08 30.58 30.74 30.49 29.89 30.76 30.91 30.45 29.46 28.20
34.49 34.19 33.89 33.71 33.60 33.60 33.41 32.59 32.28 32.20 32.36 32.58 32.39 32.14 31.91 31.91 31.60 31.26 31.10 31.26 31.12 31.30 31.99 33.40 31.83 30.80 29.92 29.12 28.71 28.43 28.25 28.07 27.62 27.49 27.60 27.79 27.74 27.88 28.03 28.00 27.78 27.68 27.58 27.43 27.26 27.05 26.74 26.41 28.85 30.47 31.59 32.56 31.86 30.47 28.84 27.52 27.39 27.79 28.52 29.46 30.45 30.71 30.22 28.81 29.96 30.08 29.28 27.21 25.68
33.92 33.70 33.45 33.23 33.24 33.01 32.66 32.56 32.58 32.68 32.75 32.83 31.90 31.40 31.01 30.55 30.54 30.56 30.45 30.48 30.61 31.13 31.52 31.28 29.33 28.48 28.34 28.31 28.40 28.32 28.07 27.67 27.59 27.43 27.31 27.31 27.43 27.55 27.63 27.58 27.55 27.62 27.55 27.26 27.10 26.77 26.57 26.92 28.91 29.57 29.82 30.70 31.75 31.00 29.32 27.58 26.80 27.01 27.74 28.54 29.89 29.87 29.47 29.68 29.06 28.45 27.57 25.85 24.77
33.50 33.04 32.77 32.75 32.60 32.35 32.09 31.89 32.07 32.29 32.21 31.66 31.18 30.83 30.57 30.29 30.16 30.22 30.50 30.78 31.29 31.17 30.49 29.40 28.35 27.93 27.78 27.84 27.82 27.67 27.47 27.29 27.39 27.34 27.20 27.14 27.59 27.73 27.80 27.73 27.68 27.76 27.69 27.28 27.10 26.66 26.61 27.61 29.03 29.35 29.57 30.81 30.90 30.11 28.70 27.11 26.67 26.66 27.28 28.56 29.43 29.45 28.93 28.34 27.20 26.27 25.47 24.71 24.19
33.21 32.75 32.50 32.52 32.21 32.09 31.86 31.41 31.63 31.73 31.59 31.25 31.13 31.37 32.11 33.22 31.38 30.54 30.58 31.44 31.23 30.18 28.98 28.36 27.81 27.64 27.69 27.67 27.47 27.22 27.01 26.86 26.96 27.04 27.13 27.56 28.24 28.11 27.78 27.69 27.53 27.72 27.78 27.43 27.25 26.95 27.00 28.01 28.83 28.67 28.27 28.55 28.19 28.00 27.71 26.94 26.73 26.68 27.46 29.47 29.36 28.65 27.71 27.34 26.18 25.16 24.58 24.67 24.01
32.83 32.62 32.56 32.51 32.37 32.49 32.46 31.82 31.95 31.77 31.29 30.66 30.54 30.74 31.34 32.32 31.03 30.68 30.82 30.84 29.62 28.86 28.35 27.81 27.42 27.49 27.71 27.53 27.16 27.17 27.14 26.65 26.74 26.92 27.09 27.43 28.09 27.86 27.43 27.32 27.21 27.30 27.42 27.46 27.30 27.32 27.78 28.96 28.70 28.31 28.10 28.45 28.04 27.94 27.77 27.26 26.95 26.83 27.17 28.34 27.65 27.21 26.73 26.13 25.07 24.35 23.93 24.17 23.86
32.45 32.11 31.99 31.84 31.85 32.02 31.99 31.62 31.37 30.97 30.47 30.02 29.81 29.71 29.64 29.72 30.01 30.71 30.86 29.49 29.09 28.76 28.27 27.67 27.21 27.19 27.31 27.34 26.96 27.57 27.93 26.74 26.78 26.99 27.37 27.56 27.41 27.30 27.25 27.20 27.22 27.17 27.13 27.26 27.28 27.69 28.06 28.03 28.16 28.02 27.68 27.39 28.50 28.98 28.67 27.32 27.02 26.95 27.12 27.28 26.79 26.43 26.02 25.53 24.35 23.88 23.80 23.88 24.07
32.03 31.74 31.57 31.33 31.39 31.42 31.39 30.94 30.45 30.00 29.70 29.53 29.58 29.69 29.83 29.91 30.59 30.75 30.30 29.06 29.59 28.84 27.86 27.59 27.63 27.36 26.96 26.99 26.65 26.57 26.60 26.82 27.01 27.27 27.61 27.69 27.57 27.42 27.36 27.48 27.43 27.39 27.48 27.76 27.72 27.91 28.06 27.97 27.62 27.59 27.68 27.72 28.72 28.85 28.23 26.96 26.87 27.04 27.25 27.24 26.79 26.10 25.35 24.65 23.86 23.63 23.65 23.74 24.43
31.50 31.32 31.17 31.01 31.18 31.15 31.01 30.55 30.29 29.87 29.58 29.40 29.44 29.66 29.89 30.16 31.04 30.75 29.79 28.68 28.64 28.00 27.31 27.12 28.17 28.29 27.82 26.87 26.66 26.78 26.93 27.08 27.22 27.30 27.47 27.75 27.56 27.34 27.46 27.92 27.71 27.74 28.05 28.70 28.24 27.85 27.81 28.27 27.75 27.46 27.40 27.39 27.76 27.76 27.41 26.81 26.97 26.98 26.96 26.83 26.42 25.83 25.11 24.41 23.69 23.54 23.71 23.96 24.80
31.02 30.87 30.80 30.92 30.90 30.74 30.51 30.23 30.30 30.03 29.65 29.53 29.62 29.81 30.07 30.35 30.96 30.60 29.61 28.09 27.63 27.11 26.74 26.66 27.46 28.20 28.40 27.55 27.06 26.95 27.08 27.17 27.28 27.28 27.41 27.63 27.53 27.37 27.47 27.93 27.92 28.12 28.45 28.74 28.31 27.95 27.66 27.53 27.51 27.33 27.23 27.19 27.29 27.28 27.22 27.03 26.90 26.84 26.68 26.21 25.69 25.17 24.68 24.05 23.69 23.75 24.08 24.32 24.94
30.74 30.59 30.59 30.73 30.52 30.22 30.01 29.84 30.06 30.00 29.87 30.04 30.30 30.43 30.40 30.02 30.00 30.25 29.83 28.09 27.12 26.65 26.50 26.79 26.78 26.69 27.09 28.53 28.33 27.80 27.25 27.16 27.23 27.24 27.25 27.37 27.53 27.62 27.67 27.88 28.26 28.34 28.29 28.17 28.31 28.23 27.99 27.52 27.65 27.33 26.96 26.93 27.11 27.20 27.23 27.20 26.91 26.47 26.00 25.48 25.03 24.57 24.33 24.29 24.41 24.47 24.51 24.69 25.48
30.33 30.21 30.23 30.22 29.97 29.66 29.52 29.35 29.67 30.07 30.51 31.17 31.33 31.03 30.41 29.60 29.35 29.89 30.21 28.95 27.36 26.88 26.97 27.05 26.63 26.34 26.65 28.06 28.73 28.45 27.79 27.30 27.31 27.30 27.35 27.47 27.58 27.68 27.85 27.88 28.33 28.33 28.05 27.85 28.04 28.16 28.14 27.76 27.83 27.39 26.89 26.73 27.03 27.23 27.26 26.99 26.96 26.42 25.75 25.25 24.76 24.24 24.20 25.13 25.19 24.90 24.68 24.91 25.82
29.87 29.77 29.78 29.72 29.29 29.12 29.03 28.97 29.64 30.74 31.76 32.20 31.66 30.87 29.98 29.15 28.72 28.66 28.82 28.85 27.27 26.92 27.18 27.19 26.53 26.33 26.46 26.92 27.16 28.00 28.49 27.77 27.45 27.35 27.34 27.41 27.33 27.40 27.60 27.76 28.14 28.09 27.77 27.54 27.57 27.81 27.95 27.94 27.72 27.54 27.35 27.17 27.33 27.41 27.36 26.96 26.67 26.08 25.50 25.11 24.58 24.12 24.04 24.52 24.43 24.45 24.64 24.95 26.03
29.41 29.30 29.26 29.14 28.84 28.97 29.39 30.29 31.22 32.10 32.42 31.91 30.99 30.18 29.27 28.40 27.73 27.27 27.10 27.56 27.64 27.31 26.92 26.98 26.61 26.48 26.56 26.98 26.61 27.81 28.87 28.29 27.64 27.31 27.19 27.13 27.12 27.17 27.35 27.63 27.83 27.66 27.41 27.28 27.36 27.50 27.55 27.63 27.58 27.52 27.52 27.69 27.65 27.50 27.17 26.53 26.26 25.77 25.22 24.84 24.47 24.23 24.05 23.90 23.91 24.26 24.65 24.93 25.42
28.92 28.89 28.86 28.71 28.67 29.07 30.08 31.64 32.56 32.63 32.06 30.98 30.29 29.59 28.83 27.84 27.02 26.90 27.07 27.05 27.84 27.30 26.48 26.55 26.76 26.86 26.93 26.97 26.87 27.27 27.84 28.26 27.59 27.18 27.01 27.01 27.02 27.11 27.33 27.53 27.55 27.40 27.17 27.02 27.25 27.30 27.33 27.45 27.45 27.46 27.46 27.54 27.61 27.28 26.81 26.26 25.99 25.46 25.06 24.80 24.55 24.32 24.16 24.04 24.09 24.26 24.43 24.58 24.67
28.69 28.64 28.59 28.43 28.73 29.63 30.96 32.54 32.88 32.32 31.31 30.45 29.76 29.09 28.31 27.22 26.73 26.73 27.09 27.62 27.74 27.10 26.44 26.55 26.92 27.16 27.21 27.05 27.02 26.86 27.00 28.02 27.35 26.94 26.81 27.00 27.21 27.42 27.58 27.70 27.38 27.41 27.44 27.27 27.33 27.17 27.11 27.46 27.57 27.78 27.91 27.80 27.55 27.24 26.95 26.74 26.30 25.78 25.30 24.97 24.71 24.41 24.20 24.05 24.13 24.27 24.38 24.44 24.47
28.59 28.46 28.35 28.35 29.29 30.81 32.23 33.09 32.60 31.72 30.78 30.04 29.25 28.36 27.55 27.00 26.78 26.51 26.61 27.19 27.18 26.91 26.74 26.98 27.10 27.15 27.12 26.90 26.73 26.40 26.42 27.19 26.86 26.75 26.80 26.97 27.45 27.75 27.86 27.72 26.95 26.83 26.92 26.78 26.96 27.09 27.34 28.00 28.39 28.43 28.42 28.43 27.69 27.40 27.36 27.36 27.00 26.30 25.64 25.07 24.66 24.34 24.16 24.07 24.19 24.29 24.36 24.40 24.39
28.42 28.37 28.49 28.96 31.12 32.99 33.94 33.25 32.13 31.24 30.51 29.68 28.75 27.90 27.25 26.94 26.63 26.34 26.14 26.29 27.55 27.69 27.31 26.94 26.95 26.79 26.55 26.24 25.90 25.69 25.76 26.26 26.48 26.74 26.92 26.73 26.99 27.13 27.11 27.02 26.61 26.41 26.62 27.23 27.24 27.79 28.72 29.78 30.19 30.00 29.66 29.55 28.52 28.11 27.97 27.57 27.31 26.64 25.81 25.10 24.76 24.44 24.42 24.40 24.34 24.29 24.25 24.22 24.27
28.33 28.66 29.29 30.29 32.12 33.41 33.77 32.65 31.74 31.02 30.28 29.39 28.36 27.62 27.12 26.82 26.53 26.38 26.41 26.78 27.28 27.25 26.93 26.53 26.40 26.07 25.73 25.37 25.18 25.30 25.61 26.11 26.45 26.77 27.04 27.06 27.13 26.94 26.80 27.10 26.95 26.75 26.99 28.19 30.08 31.57 32.67 33.16 32.73 32.19 31.79 31.33 30.54 29.93 29.19 28.26 27.38 26.48 25.82 25.39 25.20 24.99 24.81 24.71 24.58 24.40 24.26 24.13 24.23
28.69 29.64 30.65 31.40 32.65 33.12 33.03 32.36 31.57 30.72 29.75 28.63 27.64 27.13 26.89 26.82 26.85 26.75 26.84 27.09 27.06 26.78 26.34 25.91 25.52 25.34 25.38 25.53 25.53 25.61 25.75 26.04 26.15 26.27 26.57 27.09 27.19 26.98 26.99 27.50 27.54 27.76 28.61 30.58 34.12 36.17 36.85 36.55 35.57 34.46 33.42 32.57 31.77 31.07 30.13 28.51 27.63 26.90 26.39 26.10 25.96 25.78 25.45 24.94 24.71 24.46 24.23 24.16 24.29
29.49 30.33 31.10 31.71 32.84 32.99 32.65 32.07 31.22 30.10 28.91 27.76 27.21 27.03 27.01 26.94 27.24 27.01 26.70 26.78 26.55 26.01 25.48 25.10 24.76 26.12 27.43 26.81 26.37 26.21 26.08 26.16 25.96 25.81 25.96 26.67 26.69 26.55 26.74 27.59 28.14 28.52 29.75 32.77 35.51 36.99 37.61 38.00 37.81 36.66 34.95 33.00 32.13 31.46 30.77 29.86 28.42 27.52 26.85 26.26 26.19 25.91 25.66 25.71 25.13 24.74 24.55 24.57 24.42
30.65 31.03 31.20 31.42 31.95 31.84 31.39 30.74 29.87 28.93 28.09 27.33 27.28 27.17 26.92 26.51 26.36 26.25 26.20 26.13 25.64 25.04 24.61 24.52 24.65 27.17 29.08 26.99 26.54 26.27 26.22 26.06 25.86 25.60 25.37 25.52 25.96 26.00 26.22 27.24 27.84 28.76 30.66 34.03 36.07 37.10 37.53 37.92 38.07 37.65 36.33 33.93 32.44 31.53 30.94 30.44 29.11 28.11 27.22 26.59 26.10 25.66 25.35 25.34 25.22 25.20 25.14 24.96 24.54
31.87 31.71 31.19 30.61 30.25 29.86 29.40 28.82 28.46 28.12 27.72 27.23 27.09 26.88 26.52 25.95 25.79 25.68 25.49 25.11 24.62 24.34 24.40 24.57 25.86 26.78 27.04 26.39 26.35 26.20 26.01 25.64 25.63 25.53 25.40 25.17 25.29 25.35 25.80 27.14 27.49 29.14 31.76 35.14 36.29 36.95 37.30 37.65 37.80 37.72 37.10 35.58 33.24 31.75 30.86 30.14 29.57 28.80 27.96 27.21 26.47 25.82 25.29 25.18 25.50 25.46 25.24 24.82 24.82
32.53 31.63 30.64 30.16 29.66 29.21 28.77 28.46 28.28 27.91 27.41 26.89 26.54 26.29 25.93 25.47 25.30 25.07 24.78 24.48 24.40 24.63 24.94 25.03 26.47 26.53 26.20 26.30 26.08 25.81 25.61 25.44 25.49 25.44 25.22 24.89 24.92 25.41 26.12 26.79 27.05 29.11 32.23 35.61 36.33 36.72 37.03 37.26 37.41 37.44 37.29 36.84 34.43 32.72 31.48 30.59 29.85 29.04 28.34 27.91 27.19 26.55 25.98 25.75 25.76 25.56 25.23 25.00 25.60
31.90 30.88 29.94 29.17 28.64 28.12 27.82 27.64 27.43 27.13 26.74 26.33 25.90 25.53 25.14 25.08 24.93 24.71 24.50 24.48 24.46 25.10 25.71 25.55 25.68 25.86 25.97 25.77 25.69 25.54 25.51 25.57 25.45 25.05 24.63 24.32 24.98 25.89 26.84 27.63 27.02 28.61 31.69 35.47 36.22 36.61 36.80 36.94 36.94 36.94 36.93 36.88 35.11 33.14 31.46 30.47 29.32 28.60 28.20 28.09 27.09 26.15 25.43 25.27 25.28 25.33 25.46 25.67 26.62
30.99 30.00 29.13 28.34 27.84 27.43 27.14 26.87 26.67 26.38 26.01 25.56 25.09 24.82 24.74 24.74 24.59 24.28 24.07 23.96 24.41 25.76 26.71 26.01 25.53 25.52 25.54 25.38 25.35 25.29 25.24 25.12 24.82 24.64 24.51 24.44 26.40 26.69 26.31 26.03 25.64 27.93 31.64 35.37 36.07 36.42 36.53 36.59 36.55 36.51 36.54 36.68 35.15 33.15 31.23 30.11 28.99 28.29 27.85 27.66 26.76 25.87 25.71 26.74 27.42 27.09 26.50 26.44 27.64
30.18 29.25 28.50 28.04 27.66 27.31 26.90 26.52 26.15 25.71 25.17 24.79 24.52 24.46 24.40 24.21 23.60 23.15 22.99 23.47 24.45 25.08 25.40 25.49 25.58 25.53 25.46 25.10 25.25 25.14 24.83 24.62 24.75 25.12 25.51 25.66 25.30 24.78 24.78 26.10 25.61 28.09 31.84 35.29 35.88 36.14 36.18 36.24 36.12 36.12 36.22 36.43 35.09 32.83 30.61 29.39 28.56 28.05 27.48 26.49 25.99 26.32 27.29 28.38 28.19 28.03 28.02 28.29 28.47
29.54 28.76 28.04 27.76 27.55 27.08 26.57 26.13 25.53 24.98 24.56 24.35 24.11 24.02 23.79 23.19 22.59 22.34 22.65 23.82 24.78 24.98 25.03 25.64 25.66 25.62 25.47 25.31 25.25 24.92 24.75 25.18 25.53 26.09 26.38 25.94 24.70 24.26 24.70 26.18 26.14 29.01 32.71 35.14 35.56 35.72 35.79 35.78 35.73 35.83 36.01 36.29 34.47 32.11 29.93 28.67 28.48 28.09 27.67 27.22 27.92 28.21 28.28 28.06 28.80 29.11 29.10 28.94 28.60
28.30 28.12 27.88 27.57 27.49 26.89 26.20 25.54 24.75 24.33 24.19 24.29 24.02 23.59 23.15 22.62 22.85 23.46 24.35 25.81 25.96 25.67 25.48 25.69 25.47 25.36 25.18 25.06 24.71 24.55 25.19 27.15 26.33 25.28 24.44 24.09 23.82 24.01 24.72 25.79 26.84 29.85 33.17 34.88 35.20 35.32 35.36 35.36 35.46 35.63 35.76 35.92 33.53 31.10 29.18 27.94 27.85 27.58 27.69 28.52 28.95 29.14 29.42 30.01 29.78 29.54 29.37 29.07 28.93
27.68 27.47 27.29 26.99 26.71 26.17 25.52 24.75 24.10 23.94 24.04 24.19 23.94 23.50 23.03 22.63 23.39 24.03 25.14 26.85 27.18 26.36 25.24 24.94 24.59 24.41 24.26 24.14 24.09 24.41 25.06 25.71 25.21 24.72 24.37 24.40 24.29 24.51 24.81 25.00 25.94 29.23 32.90 34.45 34.74 34.86 34.94 35.01 35.18 35.35 35.36 34.76 32.20 30.14 28.72 27.66 27.52 27.66 28.07 28.87 28.60 29.18 29.83 29.73 29.55 29.57 29.44 29.27 28.76
27.43 27.06 26.65 26.04 25.61 25.07 24.44 23.75 23.46 23.61 23.90 23.90 23.63 23.46 23.17 22.94 23.23 23.68 24.86 27.16 26.77 25.67 24.52 24.19 23.81 23.80 23.90 24.06 24.08 24.97 25.46 24.53 24.36 24.49 24.82 25.30 24.87 24.35 24.00 24.11 24.67 28.02 31.90 33.82 34.19 34.39 34.55 34.69 34.94 35.11 34.76 33.12 30.81 29.38 28.68 28.40 28.39 28.44 28.33 27.90 27.78 28.61 29.37 29.38 29.28 29.35 29.34 29.12 28.31
26.86 26.55 26.05 25.24 24.62 23.89 23.28 22.75 23.11 23.46 23.59 23.28 23.03 23.01 23.10 23.28 23.33 23.39 24.17 26.46 24.94 24.28 24.06 23.98 23.92 23.93 23.99 24.02 24.08 24.46 24.66 24.21 24.03 24.36 25.14 26.05 25.31 24.48 23.96 24.20 23.98 26.47 30.05 32.95 33.64 34.00 34.23 34.45 34.70 34.71 33.87 31.67 29.76 28.84 28.55 28.59 28.67 28.48 28.13 27.50 27.53 28.15 28.82 28.95 28.75 28.61 28.59 28.50 28.51
26.16 25.98 25.57 24.60 23.93 23.21 22.68 22.32 22.87 23.17 23.17 22.76 22.54 22.59 22.76 22.92 23.24 23.43 24.42 26.80 24.82 24.11 23.95 24.00 24.10 24.01 23.95 23.72 24.28 24.46 24.34 24.23 24.48 24.64 24.71 24.80 24.33 24.29 24.34 24.39 23.91 25.50 28.30 31.87 33.08 33.67 33.95 34.25 34.50 34.44 33.52 31.15 29.37 28.63 28.42 28.44 28.09 27.85 27.76 27.64 27.58 27.86 28.33 28.71 28.55 28.26 28.09 27.97 29.82
25.73 25.45 24.91 23.99 23.36 22.85 22.56 22.42 22.77 22.87 22.80 22.60 22.55 22.50 22.46 22.38 22.88 23.86 25.09 26.40 24.44 23.67 23.60 23.71 23.78 23.81 24.15 24.99 25.60 25.22 24.59 24.24 24.37 24.56 24.49 23.79 24.09 25.57 26.49 25.42 24.08 24.87 27.24 31.00 32.48 33.34 33.71 34.04 34.30 34.39 33.73 31.78 29.56 28.70 28.45 28.21 27.56 27.30 27.23 27.22 27.04 27.36 28.02 28.71 28.52 28.17 27.81 27.41 30.55
24.87 24.24 23.47 22.76 22.50 22.42 22.56 22.78 22.82 22.63 22.49 22.68 22.90 22.85 22.94 23.36 24.27 25.28 25.68 24.76 23.32 22.83 22.99 23.23 23.35 23.86 24.94 26.74 26.04 24.97 24.20 24.17 23.75 23.77 23.97 24.08 24.96 27.17 28.39 25.99 23.84 23.82 25.78 29.57 31.77 32.96 33.49 33.88 34.14 34.31 33.73 31.70 29.87 29.04 28.64 28.11 27.39 26.92 26.60 26.53 26.66 27.01 27.59 28.26 28.24 27.92 27.54 26.94 29.24
23.62 23.27 22.99 22.35 21.71 21.89 22.55 23.22 23.15 22.66 22.25 22.42 22.73 23.26 24.05 25.15 24.76 24.39 23.69 22.54 22.45 22.55 22.90 23.33 23.39 23.68 24.47 26.21 25.48 24.34 23.42 23.51 23.65 23.40 23.46 24.39 24.67 26.15 26.82 24.50 22.86 22.42 23.53 26.72 30.53 32.56 33.47 33.83 34.00 34.17 33.81 32.17 30.42 29.42 28.79 27.95 27.31 26.64 26.11 26.22 26.91 27.36 27.59 27.70 27.72 27.62 27.48 27.35 27.97
MSLP
1014.66 1014.86 1015.06 1015.26 1015.46 1015.70 1015.90 1016.06 1016.18 1016.30 1016.42 1016.54 1016.74 1016.86 1016.98 1017.14 1017.34 1017.42 1017.54 1017.58 1017.66 1017.74 1017.78 1017.82 1017.86 1017.86 1017.90 1017.90 1017.90 1017.86 1017.86 1017.86 1017.82 1017.74 1017.70 1017.70 1017.70 1017.70 1017.66 1017.58 1017.62 1017.58 1017.58 1017.54 1017.50 1017.46 1017.42 1017.34 1017.30 1017.18 1017.06 1016.98 1016.94 1016.90 1016.82 1016.70 1016.70 1016.66 1016.62 1016.58 1016.54 1016.54 1016.50 1016.46 1016.42 1016.34 1016.26 1016.18 1016.10
1014.86 1014.98 1015.14 1015.30 1015.50 1015.70 1015.94 1016.14 1016.26 1016.42 1016.54 1016.58 1016.74 1016.86 1016.98 1017.14 1017.30 1017.42 1017.54 1017.58 1017.62 1017.70 1017.74 1017.82 1017.86 1017.90 1017.90 1017.90 1017.86 1017.86 1017.86 1017.86 1017.82 1017.78 1017.74 1017.70 1017.70 1017.66 1017.66 1017.62 1017.58 1017.58 1017.58 1017.58 1017.54 1017.46 1017.42 1017.38 1017.34 1017.26 1017.10 1016.98 1016.94 1016.90 1016.82 1016.74 1016.70 1016.70 1016.66 1016.62 1016.54 1016.46 1016.42 1016.42 1016.30 1016.26 1016.18 1016.10 1015.98
1014.94 1015.14 1015.26 1015.42 1015.62 1015.82 1016.06 1016.26 1016.42 1016.54 1016.70 1016.74 1016.82 1016.90 1016.98 1017.14 1017.26 1017.42 1017.58 1017.62 1017.70 1017.74 1017.78 1017.82 1017.86 1017.86 1017.86 1017.86 1017.86 1017.86 1017.86 1017.86 1017.86 1017.82 1017.74 1017.70 1017.70 1017.66 1017.62 1017.62 1017.58 1017.58 1017.54 1017.54 1017.54 1017.46 1017.42 1017.42 1017.34 1017.26 1017.14 1017.02 1016.98 1016.98 1016.86 1016.70 1016.70 1016.70 1016.66 1016.66 1016.54 1016.42 1016.38 1016.30 1016.26 1016.14 1016.06 1015.98 1015.90
1015.10 1015.26 1015.42 1015.58 1015.74 1015.94 1016.10 1016.26 1016.46 1016.62 1016.70 1016.78 1016.86 1016.98 1017.06 1017.18 1017.30 1017.42 1017.58 1017.70 1017.78 1017.78 1017.82 1017.86 1017.86 1017.86 1017.86 1017.86 1017.90 1017.86 1017.86 1017.82 1017.78 1017.78 1017.78 1017.70 1017.70 1017.66 1017.62 1017.58 1017.58 1017.58 1017.54 1017.54 1017.54 1017.50 1017.46 1017.42 1017.34 1017.26 1017.14 1017.14 1017.10 1016.98 1016.86 1016.74 1016.74 1016.70 1016.66 1016.54 1016.46 1016.42 1016.34 1016.26 1016.14 1016.06 1015.98 1015.90 1015.86
1015.26 1015.38 1015.50 1015.66 1015.86 1015.98 1016.14 1016.26 1016.42 1016.58 1016.70 1016.78 1016.90 1017.02 1017.18 1017.30 1017.42 1017.58 1017.66 1017.70 1017.78 1017.82 1017.86 1017.86 1017.90 1017.94 1017.90 1017.86 1017.86 1017.86 1017.86 1017.82 1017.74 1017.74 1017.78 1017.70 1017.70 1017.66 1017.62 1017.58 1017.58 1017.58 1017.58 1017.54 1017.54 1017.50 1017.46 1017.42 1017.38 1017.26 1017.18 1017.14 1017.06 1016.98 1016.86 1016.78 1016.78 1016.70 1016.58 1016.50 1016.42 1016.34 1016.26 1016.18 1016.10 1015.98 1015.90 1015.86 1015.74
1015.42 1015.54 1015.66 1015.78 1015.86 1015.98 1016.14 1016.26 1016.42 1016.62 1016.70 1016.78 1016.98 1017.18 1017.34 1017.46 1017.54 1017.62 1017.70 1017.82 1017.86 1017.90 1017.90 1017.86 1017.86 1017.90 1017.90 1017.86 1017.90 1017.90 1017.86 1017.86 1017.82 1017.78 1017.78 1017.70 1017.70 1017.66 1017.62 1017.62 1017.62 1017.58 1017.58 1017.54 1017.54 1017.50 1017.50 1017.46 1017.38 1017.26 1017.18 1017.06 1016.98 1016.86 1016.82 1016.78 1016.74 1016.70 1016.58 1016.46 1016.38 1016.26 1016.22 1016.14 1016.02 1015.94 1015.86 1015.78 1015.74
1015.42 1015.58 1015.74 1015.86 1015.90 1016.06 1016.22 1016.42 1016.50 1016.66 1016.78 1016.90 1017.10 1017.30 1017.46 1017.58 1017.66 1017.74 1017.82 1017.86 1017.94 1017.98 1017.94 1017.94 1017.90 1017.94 1017.98 1017.98 1017.94 1017.94 1017.90 1017.90 1017.86 1017.82 1017.78 1017.78 1017.74 1017.70 1017.70 1017.70 1017.66 1017.62 1017.58 1017.58 1017.58 1017.54 1017.46 1017.42 1017.38 1017.26 1017.14 1016.98 1016.90 1016.86 1016.78 1016.70 1016.70 1016.66 1016.58 1016.46 1016.34 1016.22 1016.14 1016.10 1015.98 1015.86 1015.82 1015.74 1015.78
1015.50 1015.62 1015.74 1015.86 1015.98 1016.14 1016.34 1016.50 1016.58 1016.74 1016.86 1017.02 1017.26 1017.42 1017.54 1017.66 1017.74 1017.82 1017.86 1017.94 1017.98 1017.98 1017.98 1017.98 1017.98 1017.98 1017.98 1017.98 1017.98 1017.98 1017.94 1017.94 1017.86 1017.86 1017.82 1017.82 1017.78 1017.74 1017.70 1017.70 1017.70 1017.62 1017.58 1017.58 1017.58 1017.54 1017.46 1017.42 1017.30 1017.26 1017.14 1016.98 1016.90 1016.78 1016.70 1016.66 1016.66 1016.62 1016.54 1016.42 1016.26 1016.14 1016.06 1015.98 1015.86 1015.82 1015.78 1015.74 1015.74
1015.62 1015.74 1015.86 1015.98 1016.14 1016.26 1016.42 1016.54 1016.66 1016.82 1016.98 1017.18 1017.34 1017.46 1017.58 1017.66 1017.78 1017.82 1017.86 1017.94 1017.98 1017.98 1017.98 1018.02 1018.02 1018.02 1018.02 1018.02 1018.02 1017.98 1017.98 1017.98 1017.90 1017.86 1017.86 1017.86 1017.82 1017.78 1017.74 1017.70 1017.70 1017.62 1017.58 1017.54 1017.54 1017.54 1017.50 1017.38 1017.26 1017.14 1017.06 1016.98 1016.90 1016.78 1016.66 1016.58 1016.58 1016.54 1016.46 1016.38 1016.18 1016.02 1015.98 1015.90 1015.86 1015.82 1015.78 1015.70 1015.70
1015.74 1015.86 1015.98 1016.14 1016.26 1016.42 1016.54 1016.66 1016.74 1016.86 1017.06 1017.26 1017.42 1017.54 1017.62 1017.70 1017.74 1017.82 1017.86 1017.90 1017.98 1017.98 1018.02 1018.06 1018.06 1018.06 1018.06 1018.06 1018.02 1018.02 1017.98 1017.98 1017.94 1017.90 1017.86 1017.86 1017.86 1017.82 1017.78 1017.74 1017.70 1017.66 1017.58 1017.54 1017.50 1017.46 1017.42 1017.34 1017.22 1017.14 1017.02 1016.90 1016.86 1016.74 1016.62 1016.54 1016.54 1016.50 1016.42 1016.26 1016.14 1015.98 1015.94 1015.86 1015.82 1015.74 1015.70 1015.66 1015.62
1015.78 1015.94 1016.10 1016.26 1016.42 1016.50 1016.58 1016.74 1016.86 1016.98 1017.14 1017.34 1017.50 1017.58 1017.66 1017.70 1017.78 1017.86 1017.86 1017.94 1017.98 1018.06 1018.10 1018.10 1018.10 1018.06 1018.06 1018.06 1018.06 1018.02 1017.98 1017.98 1017.98 1017.94 1017.86 1017.86 1017.86 1017.82 1017.82 1017.78 1017.74 1017.70 1017.62 1017.54 1017.46 1017.42 1017.30 1017.22 1017.14 1017.06 1016.98 1016.86 1016.78 1016.66 1016.54 1016.46 1016.42 1016.38 1016.26 1016.18 1016.06 1015.98 1015.90 1015.78 1015.70 1015.70 1015.66 1015.58 1015.58
1015.86 1016.02 1016.18 1016.30 1016.46 1016.54 1016.70 1016.86 1016.98 1017.14 1017.26 1017.42 1017.58 1017.66 1017.70 1017.78 1017.82 1017.86 1017.86 1017.98 1018.02 1018.06 1018.06 1018.10 1018.10 1018.14 1018.10 1018.10 1018.10 1018.02 1017.98 1017.94 1017.98 1017.94 1017.90 1017.90 1017.86 1017.82 1017.78 1017.74 1017.70 1017.66 1017.58 1017.50 1017.42 1017.34 1017.26 1017.18 1017.14 1017.02 1016.90 1016.78 1016.70 1016.54 1016.46 1016.42 1016.38 1016.26 1016.14 1016.06 1015.98 1015.90 1015.82 1015.70 1015.66 1015.66 1015.58 1015.54 1015.50
1015.98 1016.14 1016.26 1016.42 1016.54 1016.66 1016.82 1016.98 1017.14 1017.26 1017.42 1017.50 1017.58 1017.70 1017.74 1017.82 1017.82 1017.86 1017.90 1017.98 1017.98 1018.02 1018.06 1018.06 1018.06 1018.10 1018.14 1018.10 1018.06 1018.02 1017.98 1017.94 1017.94 1017.94 1017.90 1017.86 1017.86 1017.78 1017.74 1017.70 1017.66 1017.58 1017.50 1017.42 1017.34 1017.26 1017.22 1017.14 1017.06 1016.98 1016.86 1016.74 1016.62 1016.50 1016.42 1016.38 1016.30 1016.18 1016.10 1015.98 1015.90 1015.86 1015.78 1015.66 1015.58 1015.58 1015.54 1015.50 1015.42
1016.06 1016.22 1016.42 1016.54 1016.66 1016.78 1016.94 1017.10 1017.22 1017.34 1017.46 1017.58 1017.62 1017.70 1017.74 1017.78 1017.82 1017.86 1017.86 1017.94 1017.98 1018.02 1018.06 1018.06 1018.02 1018.06 1018.10 1018.10 1018.06 1018.02 1017.98 1017.94 1017.94 1017.90 1017.86 1017.86 1017.82 1017.78 1017.70 1017.66 1017.58 1017.54 1017.46 1017.38 1017.26 1017.22 1017.14 1017.06 1016.98 1016.90 1016.82 1016.70 1016.54 1016.42 1016.34 1016.26 1016.18 1016.14 1016.02 1015.94 1015.86 1015.78 1015.70 1015.62 1015.54 1015.50 1015.42 1015.42 1015.30
1016.18 1016.38 1016.50 1016.62 1016.78 1016.90 1017.06 1017.18 1017.30 1017.42 1017.54 1017.62 1017.70 1017.70 1017.74 1017.82 1017.86 1017.86 1017.90 1017.98 1017.98 1018.06 1018.10 1018.10 1018.06 1018.02 1018.02 1018.06 1018.06 1018.06 1017.98 1017.94 1017.94 1017.90 1017.86 1017.82 1017.78 1017.74 1017.70 1017.62 1017.58 1017.50 1017.42 1017.30 1017.22 1017.14 1017.06 1016.98 1016.86 1016.82 1016.74 1016.62 1016.50 1016.38 1016.26 1016.14 1016.10 1015.98 1015.90 1015.86 1015.78 1015.70 1015.58 1015.54 1015.46 1015.42 1015.38 1015.30 1015.22
1016.34 1016.50 1016.66 1016.74 1016.86 1017.02 1017.14 1017.26 1017.34 1017.46 1017.58 1017.66 1017.70 1017.70 1017.78 1017.86 1017.86 1017.90 1017.94 1017.98 1018.02 1018.10 1018.14 1018.10 1018.10 1018.06 1018.06 1018.02 1018.02 1018.02 1017.98 1017.98 1017.90 1017.90 1017.86 1017.82 1017.78 1017.70 1017.70 1017.62 1017.58 1017.46 1017.38 1017.26 1017.14 1017.02 1016.94 1016.86 1016.78 1016.70 1016.62 1016.54 1016.42 1016.26 1016.14 1016.06 1015.98 1015.86 1015.78 1015.74 1015.66 1015.58 1015.50 1015.42 1015.38 1015.30 1015.26 1015.22 1015.14
1016.50 1016.62 1016.74 1016.86 1016.98 1017.14 1017.26 1017.30 1017.42 1017.50 1017.58 1017.62 1017.66 1017.70 1017.78 1017.82 1017.86 1017.90 1017.94 1017.98 1018.06 1018.10 1018.14 1018.14 1018.14 1018.14 1018.10 1018.02 1017.98 1017.98 1017.98 1017.94 1017.90 1017.86 1017.86 1017.86 1017.78 1017.74 1017.70 1017.58 1017.54 1017.42 1017.34 1017.26 1017.14 1016.98 1016.86 1016.74 1016.70 1016.58 1016.50 1016.42 1016.26 1016.14 1016.02 1015.94 1015.82 1015.74 1015.66 1015.62 1015.54 1015.42 1015.38 1015.26 1015.26 1015.18 1015.14 1015.10 1014.98
1016.66 1016.74 1016.86 1016.98 1017.06 1017.18 1017.26 1017.38 1017.46 1017.50 1017.50 1017.58 1017.66 1017.70 1017.78 1017.82 1017.86 1017.94 1017.98 1018.06 1018.10 1018.14 1018.18 1018.14 1018.14 1018.14 1018.14 1018.10 1018.02 1017.98 1017.94 1017.86 1017.86 1017.86 1017.86 1017.82 1017.74 1017.70 1017.66 1017.58 1017.46 1017.38 1017.26 1017.18 1017.10 1016.98 1016.86 1016.70 1016.54 1016.46 1016.38 1016.26 1016.14 1015.98 1015.90 1015.78 1015.70 1015.62 1015.58 1015.46 1015.38 1015.30 1015.26 1015.14 1015.14 1015.10 1015.02 1014.94 1014.86
1016.78 1016.86 1016.98 1017.06 1017.14 1017.26 1017.30 1017.38 1017.42 1017.46 1017.50 1017.58 1017.66 1017.74 1017.82 1017.86 1017.90 1017.98 1018.02 1018.06 1018.14 1018.14 1018.22 1018.22 1018.14 1018.14 1018.14 1018.10 1018.02 1017.94 1017.86 1017.86 1017.86 1017.82 1017.78 1017.74 1017.70 1017.70 1017.62 1017.54 1017.42 1017.30 1017.18 1017.10 1016.98 1016.86 1016.70 1016.58 1016.42 1016.30 1016.22 1016.10 1015.98 1015.86 1015.74 1015.66 1015.58 1015.50 1015.42 1015.30 1015.26 1015.14 1015.10 1015.06 1014.98 1014.94 1014.86 1014.82 1014.70
1016.86 1016.98 1017.06 1017.14 1017.22 1017.26 1017.34 1017.34 1017.38 1017.42 1017.54 1017.62 1017.70 1017.78 1017.86 1017.94 1017.98 1018.06 1018.10 1018.14 1018.14 1018.14 1018.22 1018.26 1018.22 1018.14 1018.14 1018.06 1017.98 1017.90 1017.86 1017.86 1017.86 1017.82 1017.78 1017.70 1017.70 1017.66 1017.58 1017.46 1017.38 1017.26 1017.14 1017.02 1016.90 1016.74 1016.62 1016.46 1016.34 1016.22 1016.10 1015.98 1015.82 1015.70 1015.62 1015.54 1015.42 1015.38 1015.26 1015.14 1015.10 1015.02 1014.94 1014.86 1014.86 1014.78 1014.70 1014.62 1014.54
1016.98 1017.06 1017.14 1017.18 1017.26 1017.26 1017.30 1017.34 1017.38 1017.46 1017.58 1017.70 1017.74 1017.86 1017.94 1017.98 1018.06 1018.14 1018.14 1018.14 1018.14 1018.22 1018.26 1018.26 1018.22 1018.18 1018.14 1018.02 1017.98 1017.90 1017.86 1017.82 1017.86 1017.82 1017.74 1017.70 1017.66 1017.58 1017.50 1017.42 1017.26 1017.18 1017.06 1016.94 1016.78 1016.66 1016.50 1016.38 1016.22 1016.06 1015.90 1015.82 1015.70 1015.58 1015.50 1015.38 1015.26 1015.18 1015.10 1015.02 1014.94 1014.86 1014.82 1014.74 1014.70 1014.62 1014.54 1014.50 1014.42
1017.02 1017.10 1017.14 1017.22 1017.26 1017.26 1017.26 1017.34 1017.42 1017.54 1017.62 1017.74 1017.86 1017.90 1017.98 1018.06 1018.14 1018.14 1018.14 1018.18 1018.22 1018.26 1018.26 1018.22 1018.18 1018.14 1018.10 1018.06 1018.02 1017.98 1017.86 1017.82 1017.82 1017.78 1017.74 1017.70 1017.58 1017.50 1017.42 1017.30 1017.26 1017.14 1016.98 1016.86 1016.70 1016.54 1016.38 1016.22 1016.02 1015.86 1015.74 1015.62 1015.54 1015.42 1015.34 1015.22 1015.14 1015.02 1014.94 1014.86 1014.82 1014.70 1014.66 1014.58 1014.54 1014.46 1014.42 1014.34 1014.26
1017.06 1017.14 1017.18 1017.22 1017.26 1017.26 1017.30 1017.42 1017.50 1017.58 1017.70 1017.82 1017.90 1017.98 1018.06 1018.10 1018.14 1018.18 1018.22 1018.22 1018.22 1018.26 1018.22 1018.18 1018.14 1018.14 1018.06 1018.06 1018.02 1017.98 1017.90 1017.86 1017.82 1017.74 1017.70 1017.66 1017.58 1017.46 1017.34 1017.26 1017.18 1017.06 1016.90 1016.74 1016.62 1016.42 1016.26 1016.02 1015.82 1015.66 1015.58 1015.46 1015.34 1015.26 1015.14 1015.06 1014.98 1014.86 1014.82 1014.74 1014.66 1014.54 1014.50 1014.46 1014.42 1014.30 1014.22 1014.14 1014.10
1017.14 1017.18 1017.26 1017.26 1017.26 1017.26 1017.38 1017.46 1017.58 1017.70 1017.82 1017.86 1017.98 1018.02 1018.10 1018.14 1018.18 1018.22 1018.26 1018.26 1018.26 1018.26 1018.22 1018.14 1018.14 1018.10 1018.06 1018.06 1018.02 1017.98 1017.98 1017.94 1017.86 1017.78 1017.66 1017.58 1017.54 1017.42 1017.30 1017.22 1017.10 1016.98 1016.86 1016.70 1016.54 1016.30 1016.10 1015.86 1015.62 1015.46 1015.38 1015.26 1015.14 1015.06 1014.98 1014.90 1014.82 1014.74 1014.70 1014.58 1014.50 1014.42 1014.34 1014.30 1014.22 1014.14 1014.06 1013.98 1013.90
1017.18 1017.22 1017.26 1017.26 1017.26 1017.38 1017.46 1017.58 1017.66 1017.78 1017.86 1017.94 1018.02 1018.06 1018.14 1018.14 1018.22 1018.26 1018.26 1018.26 1018.26 1018.26 1018.22 1018.18 1018.14 1018.10 1018.02 1018.02 1017.98 1017.98 1017.98 1017.98 1017.98 1017.86 1017.74 1017.58 1017.46 1017.38 1017.26 1017.14 1017.02 1016.94 1016.78 1016.54 1016.30 1016.10 1015.90 1015.70 1015.58 1015.38 1015.22 1015.10 1014.98 1014.86 1014.82 1014.70 1014.66 1014.58 1014.54 1014.42 1014.38 1014.26 1014.18 1014.10 1014.06 1013.98 1013.94 1013.86 1013.74
1017.26 1017.26 1017.30 1017.30 1017.38 1017.46 1017.58 1017.62 1017.70 1017.86 1017.94 1018.02 1018.06 1018.10 1018.14 1018.18 1018.26 1018.30 1018.30 1018.30 1018.30 1018.26 1018.22 1018.22 1018.14 1018.10 1018.02 1017.98 1017.98 1017.98 1017.98 1017.98 1017.94 1017.86 1017.78 1017.62 1017.46 1017.34 1017.22 1017.14 1016.98 1016.86 1016.70 1016.46 1016.22 1015.98 1015.78 1015.58 1015.42 1015.26 1015.14 1014.98 1014.86 1014.74 1014.66 1014.54 1014.50 1014.42 1014.38 1014.30 1014.26 1014.18 1014.10 1013.98 1013.86 1013.82 1013.74 1013.66 1013.58
1017.26 1017.30 1017.38 1017.42 1017.46 1017.58 1017.70 1017.74 1017.86 1017.94 1018.02 1018.10 1018.14 1018.14 1018.22 1018.26 1018.30 1018.34 1018.38 1018.34 1018.30 1018.26 1018.22 1018.18 1018.14 1018.10 1018.02 1017.98 1018.02 1018.06 1018.02 1017.94 1017.90 1017.86 1017.74 1017.62 1017.46 1017.34 1017.18 1017.06 1016.94 1016.82 1016.62 1016.38 1016.10 1015.86 1015.70 1015.50 1015.30 1015.18 1015.06 1014.94 1014.78 1014.66 1014.54 1014.42 1014.34 1014.26 1014.22 1014.18 1014.14 1014.06 1013.98 1013.94 1013.78 1013.66 1013.54 1013.46 1013.42
1017.34 1017.42 1017.46 1017.54 1017.62 1017.70 1017.82 1017.90 1017.98 1018.06 1018.14 1018.14 1018.22 1018.26 1018.30 1018.30 1018.34 1018.38 1018.42 1018.38 1018.34 1018.26 1018.26 1018.18 1018.14 1018.10 1018.02 1018.06 1018.10 1018.10 1018.06 1017.98 1017.86 1017.78 1017.66 1017.58 1017.46 1017.34 1017.18 1017.02 1016.86 1016.70 1016.54 1016.30 1016.02 1015.82 1015.58 1015.42 1015.22 1015.10 1014.94 1014.82 1014.70 1014.58 1014.46 1014.38 1014.26 1014.18 1014.14 1014.10 1014.02 1013.94 1013.86 1013.78 1013.62 1013.54 1013.42 1013.38 1013.30
1017.38 1017.46 1017.58 1017.66 1017.78 1017.86 1017.94 1017.98 1018.10 1018.14 1018.18 1018.26 1018.30 1018.38 1018.42 1018.38 1018.38 1018.42 1018.42 1018.42 1018.38 1018.34 1018.30 1018.26 1018.14 1018.14 1018.14 1018.14 1018.14 1018.10 1018.02 1017.94 1017.86 1017.70 1017.58 1017.50 1017.38 1017.26 1017.10 1016.98 1016.86 1016.70 1016.46 1016.22 1015.94 1015.70 1015.50 1015.34 1015.18 1015.02 1014.86 1014.70 1014.58 1014.50 1014.38 1014.30 1014.18 1014.14 1014.06 1013.98 1013.90 1013.82 1013.70 1013.58 1013.46 1013.42 1013.34 1013.26 1013.18
1017.42 1017.58 1017.70 1017.82 1017.90 1017.98 1018.02 1018.14 1018.18 1018.26 1018.26 1018.34 1018.38 1018.42 1018.42 1018.42 1018.42 1018.46 1018.46 1018.46 1018.46 1018.42 1018.34 1018.26 1018.26 1018.26 1018.22 1018.22 1018.14 1018.10 1017.98 1017.86 1017.78 1017.66 1017.58 1017.46 1017.30 1017.14 1016.98 1016.86 1016.74 1016.58 1016.42 1016.10 1015.86 1015.66 1015.42 1015.26 1015.10 1014.94 1014.78 1014.62 1014.50 1014.42 1014.34 1014.26 1014.18 1014.14 1013.98 1013.86 1013.74 1013.70 1013.58 1013.50 1013.42 1013.30 1013.22 1013.14 1013.02
1017.58 1017.66 1017.74 1017.86 1017.98 1018.10 1018.14 1018.18 1018.26 1018.30 1018.38 1018.42 1018.42 1018.46 1018.50 1018.50 1018.54 1018.54 1018.54 1018.54 1018.46 1018.38 1018.30 1018.26 1018.26 1018.30 1018.26 1018.18 1018.14 1018.10 1017.98 1017.82 1017.70 1017.58 1017.50 1017.42 1017.26 1017.10 1016.98 1016.82 1016.70 1016.54 1016.26 1015.98 1015.78 1015.58 1015.42 1015.22 1015.02 1014.86 1014.70 1014.54 1014.42 1014.34 1014.26 1014.18 1014.14 1014.06 1013.94 1013.78 1013.70 1013.58 1013.46 1013.34 1013.22 1013.14 1013.14 1013.02 1012.94
1017.66 1017.74 1017.86 1017.98 1018.10 1018.14 1018.18 1018.26 1018.34 1018.42 1018.46 1018.50 1018.50 1018.54 1018.54 1018.58 1018.58 1018.62 1018.58 1018.54 1018.46 1018.42 1018.34 1018.34 1018.34 1018.34 1018.26 1018.18 1018.10 1017.98 1017.90 1017.74 1017.66 1017.54 1017.42 1017.30 1017.22 1017.10 1016.94 1016.74 1016.66 1016.46 1016.22 1015.94 1015.70 1015.50 1015.30 1015.14 1014.98 1014.82 1014.62 1014.46 1014.38 1014.30 1014.26 1014.22 1014.14 1013.98 1013.86 1013.70 1013.58 1013.46 1013.34 1013.22 1013.14 1013.06 1012.98 1012.90 1012.82
1017.78 1017.86 1017.98 1018.06 1018.14 1018.26 1018.30 1018.38 1018.42 1018.50 1018.54 1018.54 1018.54 1018.58 1018.62 1018.66 1018.62 1018.58 1018.54 1018.50 1018.46 1018.42 1018.42 1018.42 1018.42 1018.42 1018.30 1018.22 1018.06 1017.94 1017.82 1017.70 1017.58 1017.42 1017.30 1017.22 1017.14 1017.02 1016.86 1016.70 1016.58 1016.38 1016.14 1015.86 1015.70 1015.46 1015.26 1015.10 1014.94 1014.74 1014.54 1014.42 1014.34 1014.30 1014.30 1014.18 1014.06 1013.90 1013.74 1013.58 1013.42 1013.30 1013.22 1013.14 1013.02 1012.94 1012.86 1012.78 1012.66
1017.94 1017.98 1018.10 1018.14 1018.26 1018.30 1018.42 1018.46 1018.54 1018.54 1018.54 1018.58 1018.58 1018.66 1018.70 1018.70 1018.70 1018.62 1018.54 1018.42 1018.42 1018.42 1018.42 1018.42 1018.42 1018.38 1018.26 1018.18 1018.06 1017.94 1017.74 1017.58 1017.46 1017.38 1017.26 1017.18 1017.10 1016.98 1016.82 1016.66 1016.50 1016.26 1016.06 1015.86 1015.62 1015.42 1015.22 1015.02 1014.86 1014.70 1014.54 1014.38 1014.34 1014.30 1014.22 1014.14 1013.98 1013.86 1013.66 1013.50 1013.34 1013.22 1013.14 1013.02 1012.94 1012.86 1012.78 1012.66 1012.50
1018.02 1018.14 1018.22 1018.26 1018.34 1018.42 1018.54 1018.58 1018.62 1018.62 1018.62 1018.66 1018.70 1018.70 1018.70 1018.70 1018.70 1018.66 1018.54 1018.46 1018.42 1018.46 1018.42 1018.42 1018.38 1018.30 1018.22 1018.14 1017.98 1017.86 1017.70 1017.54 1017.42 1017.34 1017.26 1017.10 1016.98 1016.90 1016.78 1016.62 1016.42 1016.26 1016.02 1015.78 1015.58 1015.38 1015.14 1014.98 1014.86 1014.66 1014.50 1014.42 1014.38 1014.30 1014.18 1014.06 1013.90 1013.70 1013.58 1013.38 1013.26 1013.14 1013.02 1012.94 1012.86 1012.74 1012.66 1012.54 1012.42
1018.10 1018.22 1018.30 1018.42 1018.46 1018.54 1018.62 1018.70 1018.70 1018.70 1018.70 1018.74 1018.78 1018.78 1018.74 1018.74 1018.70 1018.66 1018.58 1018.50 1018.50 1018.50 1018.46 1018.42 1018.38 1018.26 1018.18 1018.02 1017.86 1017.74 1017.62 1017.54 1017.42 1017.30 1017.18 1017.02 1016.94 1016.86 1016.74 1016.58 1016.42 1016.22 1015.98 1015.74 1015.54 1015.34 1015.14 1014.94 1014.82 1014.62 1014.46 1014.38 1014.38 1014.30 1014.14 1013.98 1013.82 1013.62 1013.50 1013.38 1013.26 1013.14 1013.02 1012.86 1012.74 1012.62 1012.50 1012.38 1012.26
1018.14 1018.26 1018.42 1018.54 1018.62 1018.70 1018.74 1018.74 1018.74 1018.78 1018.82 1018.86 1018.86 1018.82 1018.82 1018.78 1018.70 1018.66 1018.62 1018.58 1018.62 1018.58 1018.54 1018.38 1018.30 1018.22 1018.10 1017.98 1017.86 1017.70 1017.58 1017.50 1017.42 1017.26 1017.14 1016.98 1016.86 1016.78 1016.70 1016.54 1016.38 1016.14 1015.94 1015.70 1015.50 1015.30 1015.14 1014.94 1014.74 1014.58 1014.42 1014.38 1014.30 1014.22 1014.10 1013.94 1013.78 1013.62 1013.46 1013.34 1013.18 1013.06 1012.98 1012.86 1012.70 1012.54 1012.38 1012.26 1012.06
1018.26 1018.34 1018.46 1018.58 1018.70 1018.74 1018.78 1018.78 1018.82 1018.86 1018.86 1018.90 1018.86 1018.86 1018.82 1018.78 1018.74 1018.70 1018.66 1018.58 1018.62 1018.62 1018.54 1018.38 1018.26 1018.14 1017.98 1017.90 1017.82 1017.66 1017.50 1017.38 1017.34 1017.26 1017.10 1016.98 1016.86 1016.78 1016.62 1016.46 1016.26 1016.10 1015.90 1015.66 1015.46 1015.26 1015.06 1014.86 1014.70 1014.54 1014.42 1014.38 1014.26 1014.14 1014.02 1013.86 1013.70 1013.58 1013.42 1013.26 1013.10 1012.98 1012.86 1012.74 1012.58 1012.42 1012.18 1012.02 1011.82
1018.42 1018.42 1018.54 1018.66 1018.74 1018.78 1018.82 1018.86 1018.86 1018.90 1018.90 1018.90 1018.86 1018.82 1018.82 1018.82 1018.78 1018.70 1018.66 1018.58 1018.62 1018.62 1018.54 1018.42 1018.26 1018.06 1017.94 1017.86 1017.70 1017.58 1017.42 1017.30 1017.22 1017.14 1017.06 1016.98 1016.86 1016.70 1016.54 1016.38 1016.22 1016.06 1015.86 1015.62 1015.42 1015.26 1015.06 1014.86 1014.70 1014.54 1014.42 1014.34 1014.22 1014.14 1013.98 1013.86 1013.66 1013.54 1013.38 1013.22 1013.02 1012.86 1012.70 1012.54 1012.42 1012.18 1011.98 1011.78 1011.58
1018.46 1018.54 1018.58 1018.70 1018.70 1018.78 1018.86 1018.86 1018.86 1018.90 1018.90 1018.86 1018.86 1018.86 1018.86 1018.82 1018.70 1018.66 1018.62 1018.58 1018.58 1018.54 1018.46 1018.34 1018.18 1018.02 1017.90 1017.78 1017.70 1017.58 1017.42 1017.26 1017.14 1017.10 1016.98 1016.90 1016.78 1016.58 1016.42 1016.26 1016.14 1015.98 1015.78 1015.58 1015.42 1015.22 1015.02 1014.86 1014.66 1014.46 1014.34 1014.26 1014.14 1014.06 1013.94 1013.78 1013.58 1013.42 1013.26 1013.14 1012.94 1012.70 1012.46 1012.26 1012.14 1011.98 1011.78 1011.58 1011.46
1018.54 1018.58 1018.62 1018.70 1018.74 1018.82 1018.86 1018.86 1018.86 1018.86 1018.86 1018.86 1018.90 1018.86 1018.82 1018.74 1018.70 1018.66 1018.62 1018.58 1018.54 1018.42 1018.34 1018.22 1018.14 1017.98 1017.86 1017.74 1017.66 1017.58 1017.42 1017.26 1017.14 1017.02 1016.90 1016.82 1016.70 1016.54 1016.34 1016.18 1016.06 1015.90 1015.74 1015.58 1015.38 1015.14 1014.94 1014.74 1014.58 1014.42 1014.26 1014.14 1014.06 1013.98 1013.86 1013.74 1013.54 1013.30 1013.14 1012.98 1012.78 1012.54 1012.26 1012.02 1011.90 1011.78 1011.66 1011.54 1011.42
Wind_Speed
7 7 6 6 6 5 5 4 4 4 4 4 4 4 4 4 4 3 3 2 2 2 2 1 1 1 1 1 0 0 0 1 1 1 1 1 2 2 2 2 2 3 3 4 4 4 4 3 3 3 3 3 3 3 3 2 2 2 3 3 3 3 3 3 4 4 4 4 3
8 7 7 7 7 6 5 4 4 4 4 3 4 4 4 4 4 3 3 2 2 2 2 1 1 1 1 0 0 0 0 0 1 1 2 2 2 2 2 3 3 3 3 4 4 4 4 4 4 4 3 3 3 3 3 3 2 3 3 4 3 3 3 4 4 4 4 4 4
8 7 7 7 6 6 5 4 4 4 4 3 3 3 3 3 3 3 3 2 2 1 1 1 1 1 0 0 0 0 0 0 1 1 2 2 2 2 3 3 4 4 4 4 4 4 4 4 4 4 4 3 3 3 3 3 3 3 3 4 4 3 4 4 4 4 4 4 5
8 7 7 7 7 7 6 5 5 5 4 3 3 3 3 3 3 3 2 2 1 1 1 1 1 0 0 0 0 0 0 0 0 1 2 2 3 3 3 3 4 4 5 4 5 5 5 4 3 3 3 3 4 4 3 3 3 3 3 4 4 4 4 4 4 4 4 5 5
7 6 6 7 7 7 6 5 6 5 4 3 4 3 3 3 2 2 2 2 1 1 1 1 1 0 0 0 0 0 1 1 1 1 2 2 3 3 3 4 4 5 5 5 5 5 5 4 3 3 3 3 3 3 4 3 3 3 3 4 4 4 4 4 4 4 4 5 4
6 6 6 6 7 7 6 5 6 5 4 4 4 4 3 2 2 2 2 1 1 0 0 0 0 0 0 0 1 1 1 1 1 1 2 3 3 4 4 5 5 5 5 5 5 5 4 4 3 3 3 3 3 3 3 3 3 4 4 4 4 4 4 4 4 5 5 5 5
7 7 7 7 7 7 6 5 5 5 4 5 5 5 4 3 2 2 2 1 0 0 0 0 0 0 0 1 1 1 2 2 2 2 2 3 3 4 5 5 5 5 5 5 5 5 4 3 3 4 4 4 4 4 5 4 4 5 5 5 5 4 4 5 5 5 5 6 5
7 7 7 7 8 7 7 5 5 4 4 4 5 5 4 3 2 2 1 1 1 0 0 0 0 0 0 1 1 1 2 2 2 2 2 3 4 5 5 5 6 6 6 5 5 5 4 3 3 4 4 4 4 5 5 5 5 5 6 6 5 5 4 5 5 5 5 5 5
7 7 7 7 7 6 6 5 5 5 5 5 4 4 3 2 2 2 2 1 1 0 0 0 0 0 0 1 1 1 1 2 2 3 3 3 4 5 5 5 6 6 6 5 5 5 4 4 4 4 4 4 4 5 6 6 6 6 6 6 6 6 5 5 5 4 4 4 4
7 7 7 7 6 6 6 5 5 5 5 5 3 3 2 2 2 2 2 1 1 0 0 1 0 0 1 1 1 1 1 1 2 3 3 4 4 5 5 5 6 6 6 6 5 5 5 4 5 5 5 4 5 6 6 6 6 7 6 6 6 7 7 6 5 4 3 3 3
8 7 6 6 6 6 6 5 5 5 4 4 3 2 2 2 2 2 1 1 1 1 0 1 0 0 1 1 1 1 1 1 2 2 3 4 5 5 5 5 6 6 6 6 5 5 5 5 5 6 7 6 6 6 7 7 7 7 7 6 6 7 8 7 5 4 3 3 3
7 6 6 5 5 6 6 5 4 4 4 4 3 2 2 2 1 1 1 1 1 1 0 1 0 0 0 1 1 1 1 1 2 3 3 4 5 5 5 5 6 6 7 7 5 5 5 5 6 7 8 7 6 6 6 7 7 7 8 7 7 7 7 7 6 4 3 3 3
7 6 5 5 5 5 5 5 4 4 4 4 3 2 2 1 1 1 1 2 1 0 0 1 1 1 1 1 1 1 2 2 2 3 3 4 5 5 6 6 6 6 7 7 6 5 5 6 7 8 8 8 7 7 7 7 7 8 8 9 8 8 7 8 6 5 3 3 3
6 6 5 5 5 5 5 4 4 4 4 4 3 2 2 1 1 1 1 2 1 0 1 1 1 1 1 1 1 2 2 2 3 3 4 5 5 5 6 6 7 7 7 6 6 6 6 7 7 7 8 8 8 8 7 7 7 7 8 9 9 9 8 8 6 5 4 4 4
6 6 5 5 5 5 4 4 4 4 4 4 3 2 2 1 1 1 1 1 1 0 0 1 1 1 1 1 1 2 2 2 3 3 4 5 6 6 6 7 7 7 7 7 6 6 6 7 7 7 8 8 8 8 8 7 7 7 8 8 8 8 8 7 6 5 4 4 4
6 5 5 5 5 4 4 4 4 3 3 3 2 2 2 1 1 1 1 1 0 0 0 1 1 2 2 2 1 2 2 2 3 4 4 5 6 7 7 7 7 7 7 7 7 7 7 7 7 7 7 8 8 8 8 8 8 8 8 8 8 8 7 7 6 5 4 4 4
6 5 5 5 5 5 4 4 3 3 3 3 2 2 1 1 1 1 1 0 0 1 1 1 1 2 2 2 2 2 2 3 3 4 5 5 6 7 7 7 7 7 7 7 8 8 8 7 7 7 7 8 8 8 8 8 8 8 8 8 7 7 7 6 5 4 4 4 4
5 5 5 5 5 5 5 4 3 3 3 3 2 2 1 1 1 1 0 0 0 0 1 2 2 2 2 3 3 2 2 3 4 4 5 5 6 6 7 7 7 7 7 7 7 8 8 9 8 8 8 7 8 8 8 8 8 7 7 7 7 7 6 6 5 4 4 4 4
5 5 5 5 5 5 4 4 4 4 3 3 2 1 1 1 1 1 1 0 0 0 1 2 2 2 2 3 3 3 3 3 4 5 5 6 6 6 7 7 7 7 7 7 7 8 8 8 8 8 8 8 8 8 8 7 7 7 7 7 7 6 6 5 4 4 4 4 4
5 5 4 4 4 4 4 4 4 3 3 2 2 1 1 1 1 1 1 1 0 0 1 1 2 3 3 3 3 4 3 3 4 5 5 6 6 6 7 7 7 7 7 7 7 8 8 8 8 8 8 8 8 8 8 7 7 7 7 6 6 6 5 5 4 4 4 4 4
5 4 4 3 3 3 3 3 3 3 3 2 2 2 1 1 1 0 0 1 1 1 1 1 2 3 3 4 4 4 4 3 4 4 5 6 6 7 7 7 7 7 7 7 7 8 8 8 8 8 8 8 8 8 7 7 7 7 6 6 5 5 5 5 5 4 4 4 4
4 3 3 3 3 3 3 3 3 3 3 2 2 1 1 1 0 0 1 1 1 1 1 2 2 3 3 4 4 4 4 4 4 4 5 5 6 6 7 6 6 7 7 7 7 8 8 8 8 8 8 8 7 7 7 7 7 7 7 6 5 5 5 5 5 5 5 5 5
3 3 2 2 2 3 4 4 3 3 3 2 2 1 1 1 1 1 1 1 1 1 2 2 2 2 3 3 3 3 4 4 5 5 6 6 6 6 6 6 6 7 7 7 7 8 8 8 9 8 8 8 8 8 8 7 7 7 7 7 6 6 5 5 5 5 5 5 5
3 2 2 2 3 3 4 4 3 3 3 2 2 1 1 1 1 1 1 2 2 2 2 2 2 2 2 2 2 3 3 4 6 6 7 7 7 7 7 6 6 6 6 6 8 10 11 10 9 9 8 8 8 8 8 7 7 7 7 7 7 7 6 6 5 5 5 6 5
2 2 2 2 3 3 4 4 3 3 2 2 1 1 1 1 1 1 2 2 2 2 2 3 3 3 2 3 3 3 4 4 5 6 7 8 8 7 7 6 6 5 6 7 13 17 18 16 14 11 10 9 8 8 8 7 7 7 7 7 7 7 7 7 6 6 6 6 6
2 2 3 3 3 4 4 3 3 2 2 1 1 1 1 1 1 1 2 2 3 3 3 3 3 3 3 3 4 4 4 5 5 6 7 7 8 7 7 6 6 5 6 10 16 19 21 21 20 17 13 9 9 9 8 8 8 7 7 7 7 7 7 8 8 7 6 6 6
3 3 3 3 4 4 3 3 3 2 2 1 1 1 1 1 1 1 2 2 3 3 2 2 2 3 3 3 4 5 5 5 5 6 6 7 7 7 7 7 6 6 8 13 18 20 21 21 22 21 18 12 10 9 9 8 8 8 7 7 7 7 8 8 9 8 7 6 6
3 3 3 4 4 3 3 2 2 2 1 1 1 1 1 1 1 1 2 2 3 3 3 2 2 2 3 3 4 5 5 6 6 6 6 6 7 7 7 7 6 7 11 16 19 20 21 21 22 22 21 17 11 9 9 9 8 8 7 7 7 7 8 8 8 8 7 6 6
4 4 4 4 3 3 2 2 2 2 1 1 1 1 1 1 1 2 2 3 3 3 3 2 3 3 3 4 5 5 5 5 5 5 5 6 6 7 7 7 7 9 13 18 20 21 21 21 22 22 22 21 13 9 8 8 8 7 7 7 7 8 8 8 8 7 6 6 5
4 4 4 4 3 3 2 2 2 2 2 1 1 1 1 2 2 3 3 3 3 2 2 2 3 3 4 5 5 5 5 5 5 5 5 6 7 7 8 8 8 9 13 18 20 21 21 22 22 22 23 23 17 11 8 7 7 7 7 7 8 8 8 8 8 7 6 5 5
4 4 4 4 3 3 2 2 2 2 1 1 1 1 2 3 3 3 2 2 2 2 2 2 3 4 5 5 4 5 5 6 6 5 6 6 8 8 8 8 8 9 12 18 20 21 21 22 22 22 23 23 18 12 9 8 8 7 7 8 8 9 8 8 7 6 6 6 6
4 4 4 4 3 3 2 2 2 1 1 1 2 2 3 3 2 2 2 2 2 3 3 3 4 5 5 5 5 5 5 6 6 6 6 7 7 7 7 8 8 9 13 18 20 21 21 22 22 22 23 23 18 13 9 9 8 8 8 8 9 9 8 7 6 6 6 7 7
4 4 4 4 3 3 2 2 2 1 1 1 2 3 3 2 2 2 2 2 2 2 3 3 4 5 5 5 5 6 6 6 7 7 7 7 7 7 7 8 7 10 14 19 20 21 21 22 22 22 23 23 17 12 9 9 8 7 7 7 8 7 7 6 6 6 7 7 8
4 4 4 4 3 3 2 2 1 1 2 3 3 3 3 2 3 3 3 3 2 2 2 3 3 4 4 4 5 5 6 7 7 7 7 7 7 7 7 7 7 10 15 19 20 21 21 21 22 22 22 21 14 10 9 9 8 7 7 8 7 6 6 6 6 7 8 8 9
4 4 4 3 3 3 2 2 1 2 3 3 3 3 3 2 3 3 3 3 3 2 2 3 3 3 3 4 4 4 5 7 7 7 7 7 7 7 8 7 7 11 15 19 20 20 21 21 22 22 21 18 12 9 8 9 8 8 8 8 7 7 7 7 7 7 8 9 9
4 4 4 3 3 2 2 1 2 3 3 4 3 3 3 3 3 2 3 3 3 3 3 3 3 3 4 4 4 5 5 6 7 7 8 8 7 7 7 8 7 10 14 18 19 20 20 21 21 21 20 14 9 8 8 8 8 9 9 8 8 8 8 8 8 8 8 9 9
3 4 4 3 2 2 1 2 2 3 3 3 3 3 3 3 3 3 2 2 3 3 4 4 4 4 5 5 5 6 6 6 6 7 8 8 8 8 8 8 8 10 13 16 18 19 20 20 21 21 18 12 9 8 8 8 8 8 9 8 8 8 8 8 8 8 9 9 10
3 3 3 3 2 2 1 2 3 3 3 2 2 2 2 2 3 3 2 2 2 3 4 4 5 5 6 6 6 7 7 7 7 7 7 8 7 7 8 8 7 8 11 15 17 19 19 20 20 20 17 11 9 8 8 8 8 8 8 8 8 8 8 8 8 8 9 10 13
2 3 3 3 2 2 2 2 2 2 2 2 2 2 2 2 2 2 2 2 2 3 4 4 5 6 7 7 7 7 7 8 7 7 7 7 7 8 9 8 8 8 10 14 16 18 19 19 20 20 18 12 9 7 7 7 8 8 8 8 8 8 9 8 8 8 9 10 15
2 2 3 3 3 2 2 2 1 1 1 1 2 3 3 2 3 3 3 2 2 2 3 4 6 7 7 7 7 7 7 8 7 7 7 7 8 10 10 9 8 8 10 13 15 17 18 19 20 20 18 12 9 7 7 7 8 8 8 8 8 8 9 9 8 8 8 9 12
2 2 3 3 2 2 2 1 1 1 1 1 2 2 2 2 3 3 2 2 3 3 4 5 6 7 7 7 7 7 7 8 8 7 7 8 8 9 9 8 8 8 9 11 14 16 18 19 20 20 19 13 9 7 7 7 8 9 9 9 9 9 9 9 8 8 8 8 8
Wind_Direction
106 108 111 113 112 111 110 108 107 108 111 114 117 117 117 115 117 120 122 122 126 130 136 143 152 166 189 228 192 93 49 15 360 356 354 359 345 337 333 331 332 330 328 325 324 324 324 325 325 323 320 317 317 312 309 308 317 322 322 321 316 314 312 311 306 303 301 298 294
107 108 110 111 110 109 107 105 102 101 102 107 114 118 118 117 120 121 122 122 127 132 135 140 152 164 175 208 180 119 78 26 356 351 349 345 333 332 333 334 331 330 329 327 326 326 326 328 328 326 323 321 325 322 315 309 319 325 324 319 314 312 313 311 306 302 300 300 299
109 108 107 109 110 111 111 110 108 105 102 101 102 105 107 110 114 117 120 124 124 127 129 132 136 134 146 189 251 231 156 359 343 345 342 335 330 332 334 334 333 332 331 330 328 327 327 328 326 324 323 324 325 321 316 314 324 326 322 315 312 314 316 315 311 309 307 307 306
108 109 109 111 113 115 117 119 115 110 106 102 93 90 92 97 102 106 112 113 104 105 116 126 129 127 121 112 330 303 294 303 337 341 337 331 330 331 332 335 336 333 331 331 329 327 327 327 324 323 322 320 319 315 313 315 323 322 317 311 314 316 316 314 313 312 312 310 306
106 108 112 114 116 116 116 115 112 110 105 99 92 87 86 88 93 95 97 96 93 91 97 122 147 154 151 67 19 353 336 332 339 343 338 332 328 330 333 337 335 332 329 330 329 328 327 328 324 321 317 313 310 307 306 310 318 318 315 313 315 315 314 314 313 311 310 308 307
109 108 109 111 111 109 106 104 105 104 101 95 92 92 91 91 92 94 97 103 102 77 347 220 157 133 93 27 7 355 344 332 336 342 342 334 331 333 336 336 333 331 330 330 329 329 329 328 325 320 316 314 312 309 307 310 317 317 317 317 316 315 313 312 310 311 310 309 309
115 113 111 108 107 104 102 100 100 98 95 93 96 100 103 101 97 98 101 102 73 351 316 294 29 60 49 27 6 352 340 332 334 339 342 337 334 335 335 333 332 331 329 328 329 328 327 325 323 319 318 318 316 313 312 315 318 318 317 315 314 314 312 309 309 310 310 309 307
108 108 108 107 105 104 104 104 102 98 95 95 102 108 114 113 111 109 103 79 63 25 325 335 350 11 29 34 7 346 334 333 334 336 340 341 338 335 333 333 332 329 326 325 327 325 322 318 317 315 314 317 317 316 315 316 317 316 314 312 311 311 311 310 310 310 309 306 303
102 101 101 101 101 103 104 104 103 102 101 101 106 112 119 122 122 117 110 102 113 128 305 331 316 319 355 22 349 332 326 331 334 335 336 340 338 334 332 331 330 326 323 322 322 320 317 314 313 312 311 313 314 312 311 312 314 313 311 310 310 310 310 309 309 307 303 299 296
107 104 101 99 101 101 101 96 95 97 100 102 102 104 107 114 114 115 118 128 127 95 360 316 306 327 357 358 332 316 312 317 330 334 335 335 334 330 327 325 324 321 319 317 317 317 316 314 313 311 309 309 308 307 307 308 310 311 310 310 311 311 310 309 307 304 297 288 286
111 109 108 108 106 104 99 94 90 90 92 96 93 90 91 99 103 113 124 128 104 76 8 293 303 333 346 329 307 301 302 311 330 335 334 329 326 323 320 318 317 315 314 313 313 314 315 315 313 312 310 310 308 308 307 308 310 310 309 307 309 309 309 307 305 299 289 280 284
111 110 108 108 107 102 98 95 93 91 91 93 94 94 95 100 114 126 126 107 96 93 267 279 278 291 303 297 289 295 308 322 332 333 329 323 319 318 316 315 314 313 312 311 311 313 315 314 313 312 311 309 309 310 310 310 311 310 309 307 308 308 307 305 302 294 283 279 289
110 109 106 105 103 101 99 97 96 96 96 99 102 106 109 118 135 138 127 109 107 122 257 275 259 258 273 284 289 301 315 327 330 328 323 317 316 316 317 316 315 314 313 311 311 313 314 312 311 310 310 309 309 308 308 308 308 308 308 308 309 307 305 301 297 291 286 287 294
107 107 107 106 103 102 102 102 102 103 104 108 114 118 123 129 144 136 125 117 127 172 264 284 273 265 263 274 291 303 315 323 327 324 320 316 316 317 318 316 315 314 313 313 313 314 314 312 310 309 307 307 306 305 304 304 304 304 304 306 305 304 301 297 292 289 289 294 299
104 105 107 107 106 106 107 109 111 111 113 119 127 131 131 133 136 121 115 120 144 204 275 305 300 293 284 278 289 302 314 322 324 323 320 318 318 318 318 316 315 314 314 314 314 314 312 310 308 307 306 304 303 303 302 302 301 300 299 299 298 297 295 291 288 286 287 293 302
106 107 108 109 110 111 112 116 118 119 123 131 138 140 136 141 134 114 109 119 148 297 325 321 309 307 306 299 299 308 317 321 322 321 320 318 318 317 317 316 314 314 314 314 314 314 312 309 307 305 303 302 301 301 300 299 298 297 295 293 292 290 287 284 282 281 282 289 300
109 111 112 113 115 117 120 123 124 127 131 138 142 142 141 143 128 109 104 104 59 360 337 314 308 311 313 310 311 316 321 321 320 319 318 316 315 315 314 313 311 312 312 314 314 314 312 311 308 306 302 300 298 298 297 296 295 294 292 290 288 284 280 277 275 274 277 286 295
113 114 116 116 120 123 126 130 132 135 137 139 141 141 135 122 107 93 79 77 75 9 326 309 304 306 309 308 310 314 319 319 317 315 313 311 311 311 310 309 309 310 312 313 312 311 310 310 308 306 303 300 297 295 294 293 292 290 288 287 284 279 274 269 264 263 267 279 289
119 119 120 122 126 129 133 137 137 137 138 138 135 126 107 86 82 64 36 7 57 347 303 301 303 302 303 304 308 314 318 318 317 314 312 310 310 310 309 309 310 311 312 312 311 309 308 307 306 304 302 299 296 294 292 290 289 287 284 282 279 275 268 261 255 253 257 267 280
125 126 128 130 133 136 138 139 138 137 134 128 117 105 91 71 65 51 15 323 316 282 274 287 300 304 308 313 318 320 321 320 320 316 313 312 312 311 310 310 311 312 312 311 310 309 307 306 303 301 298 296 295 293 291 289 287 285 282 279 275 269 262 255 252 252 255 261 272
130 133 137 139 140 141 141 137 132 126 120 110 102 94 82 62 53 29 314 295 299 285 269 275 295 307 314 319 323 322 320 321 321 317 313 313 312 310 309 310 312 313 313 313 311 308 306 303 300 298 296 294 293 292 292 291 290 288 285 281 275 267 259 253 252 254 258 263 270
137 141 144 147 146 141 133 123 116 109 102 94 87 78 68 47 11 310 287 288 285 275 272 276 294 306 314 319 321 321 321 323 322 318 315 313 312 311 311 313 315 315 314 313 311 307 304 301 299 298 298 298 297 296 295 295 295 294 292 288 281 273 265 258 257 257 259 262 267
143 146 151 154 142 129 119 110 104 97 91 84 75 65 50 20 340 320 307 297 284 278 280 286 298 307 312 316 321 325 326 327 324 320 318 316 314 314 315 316 317 316 315 313 309 307 307 307 307 307 307 307 306 304 303 302 301 300 298 295 290 283 276 270 267 265 264 263 264
146 149 152 144 126 118 112 106 100 94 89 84 75 63 40 5 342 330 320 304 296 296 300 305 311 315 319 323 329 333 333 330 324 321 319 318 317 317 317 319 319 317 314 312 316 319 321 321 319 318 317 316 314 312 310 308 306 303 301 298 296 292 288 282 278 275 273 270 267
147 145 139 126 118 113 109 105 103 100 96 90 80 63 37 5 346 331 319 310 310 313 317 319 322 326 331 338 338 338 333 327 321 318 316 317 317 318 320 321 320 319 317 314 321 324 326 327 326 325 323 321 318 316 313 311 308 306 303 300 299 299 297 294 289 283 277 273 270
139 131 124 118 114 111 107 104 102 100 95 85 69 52 29 360 340 324 317 316 317 318 322 326 330 337 342 344 341 337 331 323 317 314 313 313 315 317 320 321 321 320 319 320 324 327 328 329 329 328 326 323 321 320 318 316 313 310 307 304 302 301 301 300 296 290 283 274 270
126 117 110 103 101 99 97 92 89 87 80 69 55 37 14 351 335 327 323 321 319 321 325 335 338 341 344 345 340 332 325 318 314 310 309 309 312 315 317 317 319 319 320 323 326 328 329 330 330 330 330 327 325 323 321 319 317 315 312 310 306 302 299 297 295 293 289 283 276
117 107 97 89 88 85 81 74 73 71 65 52 43 27 5 344 342 339 336 331 331 334 339 341 340 342 345 344 333 324 316 311 309 308 307 308 310 311 313 315 317 319 321 324 327 329 331 331 332 332 332 331 327 324 322 320 320 319 317 313 308 303 298 294 293 291 290 288 284
112 101 92 87 85 79 69 63 63 57 47 41 33 19 360 351 358 355 350 345 346 347 345 335 338 343 343 334 322 315 311 307 306 307 310 313 313 313 313 315 317 319 321 325 328 330 332 333 333 333 333 334 331 328 326 323 322 320 317 313 308 304 299 295 294 291 288 286 289
106 99 93 89 85 76 64 55 49 43 38 36 29 20 15 13 8 2 356 348 343 337 331 328 340 338 330 319 314 310 308 304 306 309 312 314 315 315 316 318 318 318 321 325 329 331 333 334 334 334 334 334 332 329 327 325 322 319 315 311 306 302 298 295 293 290 287 287 294
102 98 95 91 84 75 61 48 42 37 33 29 30 30 26 19 6 355 342 332 319 318 325 339 339 328 318 309 308 305 304 305 308 311 313 314 315 315 316 317 316 317 320 326 330 332 334 335 335 335 335 334 333 332 329 326 321 316 311 307 304 301 298 296 295 292 290 292 300
96 93 92 89 81 70 57 45 38 32 28 36 39 33 26 13 350 329 314 307 316 328 336 340 333 322 315 310 308 307 307 309 311 312 312 313 314 314 314 316 316 317 321 327 331 333 335 335 336 335 335 335 334 333 330 325 319 313 308 303 300 298 297 298 298 298 298 299 301
87 86 86 84 77 66 52 41 31 26 31 42 39 32 19 360 340 328 325 324 332 335 334 327 320 314 309 308 308 309 309 310 311 312 313 314 313 313 314 316 316 319 323 328 331 333 335 336 336 335 335 336 335 334 329 322 317 312 307 304 302 301 299 300 303 305 305 305 304
85 84 81 78 73 63 51 36 25 27 34 35 28 23 14 360 347 340 336 334 331 324 313 304 297 294 292 294 299 304 307 310 312 313 313 313 313 314 315 317 316 320 324 328 332 334 335 336 336 336 336 337 336 333 328 321 316 311 309 308 308 309 310 310 310 309 308 307 307
92 88 83 76 69 61 50 32 29 34 35 28 15 8 2 357 346 335 327 324 322 314 303 292 285 282 284 288 294 301 306 310 312 312 312 313 315 316 316 315 312 318 323 328 332 334 335 336 336 336 336 337 337 333 326 321 317 315 314 316 317 319 319 318 314 311 309 308 307
99 96 91 80 70 59 49 37 37 36 32 22 7 358 350 343 331 319 313 317 318 312 303 296 295 297 300 303 305 308 310 310 311 311 312 314 316 316 315 312 310 316 322 328 331 334 335 336 335 336 336 338 336 332 327 323 321 321 321 322 323 324 323 320 315 311 309 307 304
101 101 99 90 79 67 55 48 43 35 25 10 357 347 339 332 319 309 305 314 316 310 304 301 304 307 308 310 310 309 308 308 308 310 312 315 316 315 313 312 310 315 321 327 330 333 334 335 335 336 337 337 335 332 329 326 324 323 323 322 322 322 321 316 312 309 305 302 299
102 105 106 102 96 87 68 55 46 33 16 355 339 329 325 323 312 303 299 304 304 304 303 305 308 308 308 309 309 307 306 306 308 310 312 313 313 313 312 312 311 314 319 325 329 331 333 333 334 335 337 336 335 333 329 327 325 323 322 321 319 317 315 311 308 304 300 297 297
105 110 113 112 109 97 75 56 45 28 5 342 330 324 320 314 299 291 287 286 282 289 296 302 304 306 307 311 312 311 310 309 310 311 311 311 310 312 314 314 313 313 316 322 326 328 330 332 333 335 336 335 334 332 329 326 323 321 319 318 314 311 309 307 304 301 297 294 298
115 117 116 114 112 100 80 52 32 9 343 336 326 319 310 299 287 284 282 281 275 282 291 298 301 304 307 313 313 313 312 311 312 311 310 309 310 313 316 314 312 310 312 317 321 324 327 330 332 334 335 333 333 331 328 324 321 318 316 314 311 308 306 305 301 299 297 296 301
120 117 112 111 110 101 83 48 5 337 323 325 311 300 291 286 282 284 289 294 293 295 298 301 303 306 309 314 313 312 311 311 311 311 310 310 310 313 315 312 309 307 307 310 316 321 325 329 331 333 333 332 332 330 327 322 318 316 313 309 308 306 305 304 302 300 299 300 302